TimeAKDT,TemperatureF,Dew PointF,Humidity,Sea Level PressureIn,VisibilityMPH,Wind Direction,Wind SpeedMPH,Gust SpeedMPH,PrecipitationIn,Events,Conditions,WindDirDegrees,DateUTC
12:53 AM,32.0,30.9,96,30.02,10.0,Calm,Calm,-,N/A,,Clear,0,2013-04-01 08:53:00
1:53 AM,32.0,30.9,96,30.01,10.0,Calm,Calm,-,N/A,,Clear,0,2013-04-01 09:53:00
2:33 AM,32.0,30.2,93,30.00,1.8,Calm,Calm,-,N/A,,Clear,0,2013-04-01 10:33:00
2:40 AM,30.2,30.2,100,30.00,2.5,Calm,Calm,-,N/A,,Clear,0,2013-04-01 10:40:00
2:48 AM,30.2,30.2,100,30.00,10.0,Calm,Calm,-,N/A,,Clear,0,2013-04-01 10:48:00
2:53 AM,30.0,30.0,100,30.00,10.0,Calm,Calm,-,N/A,,Clear,0,2013-04-01 10:53:00
3:18 AM,30.2,28.4,93,30.00,6.0,Calm,Calm,-,N/A,,Scattered Clouds,0,2013-04-01 11:18:00
3:41 AM,30.2,30.2,100,30.00,10.0,Calm,Calm,-,N/A,,Mostly Cloudy,0,2013-04-01 11:41:00
3:48 AM,32.0,30.2,93,30.00,10.0,Calm,Calm,-,N/A,,Mostly Cloudy,0,2013-04-01 11:48:00
3:53 AM,30.9,30.9,100,30.01,10.0,Calm,Calm,-,N/A,,Mostly Cloudy,0,2013-04-01 11:53:00
4:40 AM,33.8,33.8,100,29.99,1.8,Calm,Calm,-,N/A,,Overcast,0,2013-04-01 12:40:00
4:48 AM,32.0,32.0,100,29.99,1.2,Calm,Calm,-,N/A,,Overcast,0,2013-04-01 12:48:00
4:53 AM,32.0,32.0,100,29.99,1.8,Calm,Calm,-,N/A,,Overcast,0,2013-04-01 12:53:00
5:00 AM,32.0,32.0,100,29.99,0.8,Calm,Calm,-,N/A,,Overcast,0,2013-04-01 13:00:00
5:31 AM,32.0,32.0,100,29.98,1.5,Calm,Calm,-,N/A,,Overcast,0,2013-04-01 13:31:00
5:41 AM,33.8,33.8,100,29.98,0.8,Calm,Calm,-,N/A,,Mist,0,2013-04-01 13:41:00
5:53 AM,32.0,32.0,100,29.98,0.2,Calm,Calm,-,N/A,Fog,Fog,0,2013-04-01 13:53:00
6:10 AM,33.8,33.8,100,29.98,1.5,Calm,Calm,-,N/A,,Overcast,0,2013-04-01 14:10:00
6:21 AM,33.8,33.8,100,29.98,2.5,Calm,Calm,-,N/A,,Overcast,0,2013-04-01 14:21:00
6:51 AM,32.0,32.0,100,29.98,1.8,Calm,Calm,-,N/A,,Overcast,0,2013-04-01 14:51:00
6:53 AM,32.0,32.0,100,29.98,1.0,Calm,Calm,-,N/A,,Overcast,0,2013-04-01 14:53:00
7:00 AM,33.8,33.8,100,29.98,0.5,Calm,Calm,-,N/A,Fog,Fog,0,2013-04-01 15:00:00
7:12 AM,33.8,33.8,100,29.98,0.2,Calm,Calm,-,N/A,Fog,Fog,0,2013-04-01 15:12:00
7:30 AM,33.8,33.8,100,29.98,3.0,Calm,Calm,-,N/A,,Overcast,0,2013-04-01 15:30:00
7:53 AM,34.0,34.0,100,29.98,9.0,Calm,Calm,-,N/A,,Overcast,0,2013-04-01 15:53:00
8:53 AM,36.0,36.0,100,29.98,8.0,Calm,Calm,-,N/A,,Overcast,0,2013-04-01 16:53:00
9:39 AM,37.4,37.4,100,29.98,10.0,Calm,Calm,-,N/A,,Overcast,0,2013-04-01 17:39:00
9:53 AM,39.0,39.0,100,29.99,10.0,Calm,Calm,-,N/A,,Overcast,0,2013-04-01 17:53:00
10:25 AM,39.2,39.2,100,29.98,2.0,Calm,Calm,-,0.00,Rain,Light Rain,0,2013-04-01 18:25:00
10:34 AM,39.2,39.2,100,29.98,1.8,Variable,3.5,-,0.01,Rain,Light Rain,0,2013-04-01 18:34:00
10:53 AM,41.0,41.0,100,29.99,10.0,SSW,5.8,-,0.01,,Overcast,210,2013-04-01 18:53:00
11:13 AM,42.8,41.0,93,29.99,10.0,South,4.6,-,N/A,,Overcast,180,2013-04-01 19:13:00
11:49 AM,42.8,41.0,93,29.99,4.0,SSW,5.8,-,0.00,Rain,Light Rain,200,2013-04-01 19:49:00
11:50 AM,42.1,41.0,96,29.99,4.0,SSW,5.8,-,0.00,Rain,Light Rain,200,2013-04-01 19:50:00
12:53 PM,43.0,39.9,89,29.99,10.0,SSW,6.9,-,0.00,,Overcast,210,2013-04-01 20:53:00
1:53 PM,43.0,41.0,93,30.00,10.0,SSW,5.8,16.1,0.00,Rain,Light Rain,210,2013-04-01 21:53:00
2:27 PM,42.8,41.0,93,30.00,5.0,SW,6.9,-,0.01,Rain,Light Rain,220,2013-04-01 22:27:00
2:51 PM,41.0,41.0,100,30.01,7.0,SW,6.9,-,0.02,Rain,Light Rain,220,2013-04-01 22:51:00
2:53 PM,41.0,41.0,100,30.01,10.0,SSW,8.1,-,0.02,Rain,Light Rain,210,2013-04-01 22:53:00
3:01 PM,41.0,39.2,93,30.01,10.0,SW,6.9,-,0.00,Rain,Light Rain,220,2013-04-01 23:01:00
3:09 PM,39.2,39.2,100,30.01,7.0,West,8.1,-,0.00,Rain,Light Rain,270,2013-04-01 23:09:00
3:17 PM,39.2,39.2,100,30.02,6.0,West,5.8,-,0.01,Rain,Light Rain,280,2013-04-01 23:17:00
3:53 PM,39.0,39.0,100,30.03,10.0,WSW,4.6,-,0.01,Rain,Light Rain,250,2013-04-01 23:53:00
4:00 PM,39.2,37.4,93,30.03,10.0,Variable,4.6,-,0.00,Rain,Light Rain,0,2013-04-02 00:00:00
4:25 PM,39.2,37.4,93,30.04,8.0,Variable,3.5,-,0.01,Rain,Light Rain,0,2013-04-02 00:25:00
4:53 PM,39.0,37.9,96,30.05,9.0,West,6.9,-,0.02,Rain,Light Rain,260,2013-04-02 00:53:00
5:08 PM,39.2,37.4,93,30.04,10.0,Variable,5.8,-,0.00,Rain,Light Rain,0,2013-04-02 01:08:00
5:53 PM,39.0,36.0,89,30.05,10.0,West,8.1,-,0.00,,Overcast,270,2013-04-02 01:53:00
6:28 PM,39.2,35.6,87,30.05,9.0,WNW,6.9,-,0.00,Rain,Light Rain,290,2013-04-02 02:28:00
6:51 PM,39.2,35.6,87,30.06,10.0,Calm,Calm,-,0.00,,Overcast,0,2013-04-02 02:51:00
7:53 PM,37.0,33.1,86,30.08,10.0,West,4.6,-,0.00,,Overcast,260,2013-04-02 03:53:00
8:36 PM,37.4,33.8,87,30.09,10.0,Calm,Calm,-,0.01,Rain,Light Rain,0,2013-04-02 04:36:00
8:53 PM,36.0,34.0,93,30.10,7.0,Calm,Calm,-,0.02,Rain,Light Rain,0,2013-04-02 04:53:00
9:10 PM,35.6,33.8,93,30.10,10.0,Calm,Calm,-,0.00,,Mostly Cloudy,0,2013-04-02 05:10:00
9:53 PM,33.1,32.0,96,30.10,10.0,Calm,Calm,-,0.01,,Partly Cloudy,0,2013-04-02 05:53:00
10:53 PM,33.1,32.0,96,30.11,10.0,Calm,Calm,-,N/A,,Mostly Cloudy,0,2013-04-02 06:53:00
11:53 PM,33.1,33.1,100,30.13,10.0,SE,3.5,-,N/A,,Mostly Cloudy,140,2013-04-02 07:53:00